This demonstration page uses our WeatherBlox Daily Observations layout. Learn more.

Left ArrowRight Arrow

Hourly Observations for September 27, 2022

Temp ( °F °C ) Dew Point ( °F °C ) Humidity (%) Winds ( mph kmh ) Pressure ( in mb ) Visibility ( mi km ) Precip ( " mm )
12:52 am 00:52 Mostly Clear 50 10 46 7.8 86 86 NW 5 7 30.10 1019 10 16 0.00 0.00
1:52 am 01:52 Mostly Clear 48 8.9 46 7.8 93 93 NNW 3 6 30.11 1020 10 16 0.00 0.00
2:52 am 02:52 Mostly Clear 49 9.4 45 7.2 86 86 Calm 30.11 1020 10 16 0.00 0.00
3:52 am 03:52 Mostly Clear 47 8.3 44 6.7 90 90 NNW 3 6 30.11 1020 10 16 0.00 0.00
4:52 am 04:52 Mostly Clear 45 7.2 42 5.6 90 90 NW 6 9 30.12 1020 10 16 0.00 0.00
5:52 am 05:52 Mostly Clear 45 7.2 43 6.1 93 93 WNW 3 6 30.15 1021 10 16 0.00 0.00
6:52 am 06:52 Mostly Clear 46 7.8 43 6.1 89 89 Calm 30.15 1021 10 16 0.00 0.00
7:52 am 07:52 Partly Cloudy with Patchy Fog 47 8.3 44 6.7 90 90 Calm 30.16 1022 10 16 0.00 0.00
8:52 am 08:52 Partly Cloudy with Patchy Fog 53 11.7 48 8.9 83 83 Calm 30.16 1021 10 16 0.00 0.00
9:52 am 09:52 Sunny 60 15.6 46 7.8 60 60 S 3 6 30.17 1022 10 16 0.00 0.00
10:52 am 10:52 Sunny 67 19.4 43 6.1 42 42 SSE 5 7 30.18 1022 10 16 0.00 0.00
11:52 am 11:52 Sunny 72 22.2 43 6.1 35 35 SSE 6 9 30.18 1022 10 16 0.00 0.00
12:52 pm 12:52 Mostly Sunny 76 24.4 42 5.6 30 30 N 3 6 30.17 1022 10 16 0.00 0.00
1:52 pm 13:52 Sunny 77 25 40 4.4 26 26 VRB 5 7 30.17 1022 10 16 0.00 0.00
2:52 pm 14:52 Partly Cloudy 78 25.6 41 5 27 27 E 9 15 30.16 1021 10 16 0.00 0.00
3:52 pm 15:52 Partly Cloudy 79 26.1 39 3.9 24 24 NNE 8 13 30.16 1021 10 16 0.00 0.00
4:52 pm 16:52 Partly Cloudy 77 25 42 5.6 29 29 NNE 12 19 30.16 1022 10 16 0.00 0.00
5:52 pm 17:52 Mostly Cloudy 75 23.9 41 5 29 29 NE 13 20 30.19 1022 10 16 0.00 0.00
6:52 pm 18:52 Mostly Cloudy 71 21.7 42 5.6 35 35 NE 9 15 30.21 1023 10 16 0.00 0.00
7:52 pm 19:52 Partly Cloudy 66 18.9 42 5.6 42 42 NE 10 17 30.23 1024 10 16 0.00 0.00
8:52 pm 20:52 Mostly Clear 65 18.3 41 5 41 41 ENE 15 24 30.26 1025 10 16 0.00 0.00
9:52 pm 21:52 Mostly Clear 63 17.2 40 4.4 43 43 ENE 17 28 30.29 1026 10 16 0.00 0.00
10:52 pm 22:52 Mostly Clear 60 15.6 38 3.3 44 44 ENE 16 26 30.31 1026 10 16 0.00 0.00
11:52 pm 23:52 Mostly Clear 58 14.4 35 1.7 42 42 E 10 17 30.33 1027 10 16 0.00 0.00

Powered by AerisWeather